#Datum;Uhrzeit;WR;Pac;DaySum;Status;WR;Pac;DaySum;Status;Pdc1;Udc;Temp;WR;Pac;DaySum;Status;Pdc1;Udc;Temp;WR;Pac;DaySum;Status;Pdc1;Udc;Temp;WR;Pac;DaySum;Status;Pdc1;Pdc2;Udc1;Udc2;Temp;WR;Pac;DaySum;Status;Pdc1;Pdc2;Udc1;Udc2;Temp;WR;Pac;DaySum;Status;Pdc1;Udc;Temp;WR;Pac;DaySum;Status;Pdc1;Udc;Temp;WR;Pac;DaySum;Status;Pdc1;Udc;Temp
17.03.19;23:55:00;1;310;9127;0;2;0;29729;0;0;0;0;3;0;18770;0;0;0;0;4;0;28551;0;0;0;0;5;0;66049;0;0;0;0;0;0;6;0;50089;0;0;0;0;0;0;7;0;41225;0;0;0;0;8;0;40705;0;0;0;0;9;0;22186;0;0;0;0
17.03.19;23:50:00;1;310;9101;0;2;0;29729;0;0;0;0;3;0;18770;0;0;0;0;4;0;28551;0;0;0;0;5;0;66049;0;0;0;0;0;0;6;0;50089;0;0;0;0;0;0;7;0;41225;0;0;0;0;8;0;40705;0;0;0;0;9;0;22186;0;0;0;0
17.03.19;23:45:00;1;310;9075;0;2;0;29729;0;0;0;0;3;0;18770;0;0;0;0;4;0;28551;0;0;0;0;5;0;66049;0;0;0;0;0;0;6;0;50089;0;0;0;0;0;0;7;0;41225;0;0;0;0;8;0;40705;0;0;0;0;9;0;22186;0;0;0;0
17.03.19;23:40:00;1;358;9049;0;2;0;29729;0;0;0;0;3;0;18770;0;0;0;0;4;0;28551;0;0;0;0;5;0;66049;0;0;0;0;0;0;6;0;50089;0;0;0;0;0;0;7;0;41225;0;0;0;0;8;0;40705;0;0;0;0;9;0;22186;0;0;0;0
17.03.19;23:35:00;1;410;9019;0;2;0;29729;0;0;0;0;3;0;18770;0;0;0;0;4;0;28551;0;0;0;0;5;0;66049;0;0;0;0;0;0;6;0;50089;0;0;0;0;0;0;7;0;41225;0;0;0;0;8;0;40705;0;0;0;0;9;0;22186;0;0;0;0
17.03.19;23:30:00;1;418;8984;0;2;0;29729;0;0;0;0;3;0;18770;0;0;0;0;4;0;28551;0;0;0;0;5;0;66049;0;0;0;0;0;0;6;0;50089;0;0;0;0;0;0;7;0;41225;0;0;0;0;8;0;40705;0;0;0;0;9;0;22186;0;0;0;0
17.03.19;23:25:00;1;471;8949;0;2;0;29729;0;0;0;0;3;0;18770;0;0;0;0;4;0;28551;0;0;0;0;5;0;66049;0;0;0;0;0;0;6;0;50089;0;0;0;0;0;0;7;0;41225;0;0;0;0;8;0;40705;0;0;0;0;9;0;22186;0;0;0;0
17.03.19;23:20:00;1;375;8916;0;2;0;29729;0;0;0;0;3;0;18770;0;0;0;0;4;0;28551;0;0;0;0;5;0;66049;0;0;0;0;0;0;6;0;50089;0;0;0;0;0;0;7;0;41225;0;0;0;0;8;0;40705;0;0;0;0;9;0;22186;0;0;0;0
17.03.19;23:15:00;1;375;8884;0;2;0;29729;0;0;0;0;3;0;18770;0;0;0;0;4;0;28551;0;0;0;0;5;0;66049;0;0;0;0;0;0;6;0;50089;0;0;0;0;0;0;7;0;41225;0;0;0;0;8;0;40705;0;0;0;0;9;0;22186;0;0;0;0
17.03.19;23:10:00;1;377;8853;0;2;0;29729;0;0;0;0;3;0;18770;0;0;0;0;4;0;28551;0;0;0;0;5;0;66049;0;0;0;0;0;0;6;0;50089;0;0;0;0;0;0;7;0;41225;0;0;0;0;8;0;40705;0;0;0;0;9;0;22186;0;0;0;0
17.03.19;23:07:00;1;379;8840;0;2;0;29729;0;0;0;0;3;0;18770;0;0;0;0;4;0;28551;0;0;0;0;5;0;66049;0;0;0;0;0;0;6;0;50089;0;0;0;0;0;0;7;0;41225;0;0;0;0;8;0;40705;0;0;0;0;9;0;22186;0;0;0;0
17.03.19;23:00:00;1;315;8792;0;2;0;29729;0;0;0;0;3;0;18770;0;0;0;0;4;0;28551;0;0;0;0;5;0;66049;0;0;0;0;0;0;6;0;50089;0;0;0;0;0;0;7;0;41225;0;0;0;0;8;0;40705;0;0;0;0;9;0;22186;0;0;0;0
17.03.19;22:55:00;1;315;8766;0;2;0;29729;0;0;0;0;3;0;18770;0;0;0;0;4;0;28551;0;0;0;0;5;0;66049;2;0;0;0;0;0;6;0;50089;2;0;0;0;0;0;7;0;41225;0;0;0;0;8;0;40705;0;0;0;0;9;0;22186;0;0;0;0
17.03.19;22:50:00;1;329;8739;0;2;0;29729;0;0;0;0;3;0;18770;0;0;0;0;4;0;28551;0;0;0;0;5;0;66049;2;0;0;0;0;0;6;0;50089;2;0;0;0;0;0;7;0;41225;0;0;0;0;8;0;40705;0;0;0;0;9;0;22186;0;0;0;0
17.03.19;22:45:00;1;365;8711;0;2;0;29729;0;0;0;0;3;0;18770;0;0;0;0;4;0;28551;0;0;0;0;5;0;66049;2;0;0;0;0;0;6;0;50089;2;0;0;0;0;0;7;0;41225;0;0;0;0;8;0;40705;0;0;0;0;9;0;22186;0;0;0;0
17.03.19;22:40:00;1;399;8680;0;2;0;29729;0;0;0;0;3;0;18770;0;0;0;0;4;0;28551;0;0;0;0;5;0;66049;2;0;0;0;0;0;6;0;50089;2;0;0;0;0;0;7;0;41225;0;0;0;0;8;0;40705;0;0;0;0;9;0;22186;0;0;0;0
17.03.19;22:35:00;1;337;8647;0;2;0;29729;0;0;0;0;3;0;18770;0;0;0;0;4;0;28551;0;0;0;0;5;0;66049;2;0;0;0;0;0;6;0;50089;2;0;0;0;0;0;7;0;41225;0;0;0;0;8;0;40705;0;0;0;0;9;0;22186;0;0;0;0
17.03.19;22:30:00;1;279;8619;0;2;0;29729;0;0;0;0;3;0;18770;0;0;0;0;4;0;28551;0;0;0;0;5;0;66049;2;0;0;0;0;0;6;0;50089;2;0;0;0;0;0;7;0;41225;0;0;0;0;8;0;40705;0;0;0;0;9;0;22186;0;0;0;0
17.03.19;22:25:00;1;302;8596;0;2;0;29729;0;0;0;0;3;0;18770;0;0;0;0;4;0;28551;0;0;0;0;5;0;66049;2;0;0;0;0;0;6;0;50089;2;0;0;0;0;0;7;0;41225;0;0;0;0;8;0;40705;0;0;0;0;9;0;22186;0;0;0;0
17.03.19;22:20:00;1;332;8570;0;2;0;29729;0;0;0;0;3;0;18770;0;0;0;0;4;0;28551;0;0;0;0;5;0;66049;2;0;0;0;0;0;6;0;50089;2;0;0;0;0;0;7;0;41225;0;0;0;0;8;0;40705;0;0;0;0;9;0;22186;0;0;0;0
17.03.19;22:15:00;1;307;8543;0;2;0;29729;0;0;0;0;3;0;18770;0;0;0;0;4;0;28551;0;0;0;0;5;0;66049;2;0;0;0;0;0;6;0;50089;2;0;0;0;0;0;7;0;41225;0;0;0;0;8;0;40705;0;0;0;0;9;0;22186;0;0;0;0
17.03.19;22:10:00;1;258;8518;0;2;0;29729;0;0;0;0;3;0;18770;0;0;0;0;4;0;28551;0;0;0;0;5;0;66049;2;0;0;0;0;0;6;0;50089;2;0;0;0;0;0;7;0;41225;0;0;0;0;8;0;40705;0;0;0;0;9;0;22186;0;0;0;0
17.03.19;22:05:00;1;217;8497;0;2;0;29729;0;0;0;0;3;0;18770;0;0;0;0;4;0;28551;0;0;0;0;5;0;66049;2;0;0;0;0;0;6;0;50089;2;0;0;0;0;0;7;0;41225;0;0;0;0;8;0;40705;0;0;0;0;9;0;22186;0;0;0;0
17.03.19;22:00:00;1;331;8479;0;2;0;29729;0;0;0;0;3;0;18770;0;0;0;0;4;0;28551;0;0;0;0;5;0;66049;2;0;0;0;0;0;6;0;50089;2;0;0;0;0;0;7;0;41225;0;0;0;0;8;0;40705;0;0;0;0;9;0;22186;0;0;0;0
17.03.19;21:55:00;1;334;8451;0;2;0;29729;0;0;0;0;3;0;18770;0;0;0;0;4;0;28551;0;0;0;0;5;0;66049;2;0;0;0;0;0;6;0;50089;2;0;0;0;0;0;7;0;41225;0;0;0;0;8;0;40705;0;0;0;0;9;0;22186;0;0;0;0
17.03.19;21:50:00;1;442;8422;0;2;0;29729;0;0;0;0;3;0;18770;0;0;0;0;4;0;28551;0;0;0;0;5;0;66049;2;0;0;0;0;0;6;0;50089;2;0;0;0;0;0;7;0;41225;0;0;0;0;8;0;40705;0;0;0;0;9;0;22186;0;0;0;0
17.03.19;21:45:00;1;422;8385;0;2;0;29729;0;0;0;0;3;0;18770;0;0;0;0;4;0;28551;0;0;0;0;5;0;66049;2;0;0;0;0;0;6;0;50089;2;0;0;0;0;0;7;0;41225;0;0;0;0;8;0;40705;0;0;0;0;9;0;22186;0;0;0;0
17.03.19;21:40:00;1;420;8350;0;2;0;29729;0;0;0;0;3;0;18770;0;0;0;0;4;0;28551;0;0;0;0;5;0;66049;2;0;0;0;0;0;6;0;50089;2;0;0;0;0;0;7;0;41225;0;0;0;0;8;0;40705;0;0;0;0;9;0;22186;0;0;0;0
17.03.19;21:35:00;1;332;8315;0;2;0;29729;0;0;0;0;3;0;18770;0;0;0;0;4;0;28551;0;0;0;0;5;0;66049;2;0;0;0;0;0;6;0;50089;2;0;0;0;0;0;7;0;41225;0;0;0;0;8;0;40705;0;0;0;0;9;0;22186;0;0;0;0
17.03.19;21:30:00;1;424;8288;0;2;0;29729;0;0;0;0;3;0;18770;0;0;0;0;4;0;28551;0;0;0;0;5;0;66049;2;0;0;0;0;0;6;0;50089;2;0;0;0;0;0;7;0;41225;0;0;0;0;8;0;40705;0;0;0;0;9;0;22186;0;0;0;0
17.03.19;21:25:00;1;475;8253;0;2;0;29729;0;0;0;0;3;0;18770;0;0;0;0;4;0;28551;0;0;0;0;5;0;66049;2;0;0;0;0;0;6;0;50089;2;0;0;0;0;0;7;0;41225;0;0;0;0;8;0;40705;0;0;0;0;9;0;22186;0;0;0;0
17.03.19;21:20:00;1;490;8212;0;2;0;29729;0;0;0;0;3;0;18770;0;0;0;0;4;0;28551;0;0;0;0;5;0;66049;2;0;0;0;0;0;6;0;50089;2;0;0;0;0;0;7;0;41225;0;0;0;0;8;0;40705;0;0;0;0;9;0;22186;0;0;0;0
17.03.19;21:15:00;1;525;8171;0;2;0;29729;0;0;0;0;3;0;18770;0;0;0;0;4;0;28551;0;0;0;0;5;0;66049;2;0;0;0;0;0;6;0;50089;2;0;0;0;0;0;7;0;41225;0;0;0;0;8;0;40705;0;0;0;0;9;0;22186;0;0;0;0
17.03.19;21:10:00;1;533;8127;0;2;0;29729;0;0;0;0;3;0;18770;0;0;0;0;4;0;28551;0;0;0;0;5;0;66049;2;0;0;0;0;0;6;0;50089;2;0;0;0;0;0;7;0;41225;0;0;0;0;8;0;40705;0;0;0;0;9;0;22186;0;0;0;0
17.03.19;21:05:00;1;518;8083;0;2;0;29729;0;0;0;0;3;0;18770;0;0;0;0;4;0;28551;0;0;0;0;5;0;66049;2;0;0;0;0;0;6;0;50089;2;0;0;0;0;0;7;0;41225;0;0;0;0;8;0;40705;0;0;0;0;9;0;22186;0;0;0;0
17.03.19;21:00:00;1;490;8039;0;2;0;29729;0;0;0;0;3;0;18770;0;0;0;0;4;0;28551;0;0;0;0;5;0;66049;2;0;0;0;0;0;6;0;50089;2;0;0;0;0;0;7;0;41225;0;0;0;0;8;0;40705;0;0;0;0;9;0;22186;0;0;0;0
17.03.19;20:55:00;1;490;7998;0;2;0;29729;0;0;0;0;3;0;18770;0;0;0;0;4;0;28551;0;0;0;0;5;0;66049;2;0;0;0;0;0;6;0;50089;2;0;0;0;0;0;7;0;41225;0;0;0;0;8;0;40705;0;0;0;0;9;0;22186;0;0;0;0
17.03.19;20:50:00;1;459;7957;0;2;0;29729;0;0;0;0;3;0;18770;0;0;0;0;4;0;28551;0;0;0;0;5;0;66049;2;0;0;0;0;0;6;0;50089;2;0;0;0;0;0;7;0;41225;0;0;0;0;8;0;40705;0;0;0;0;9;0;22186;0;0;0;0
17.03.19;20:45:00;1;422;7920;0;2;0;29729;0;0;0;0;3;0;18770;0;0;0;0;4;0;28551;0;0;0;0;5;0;66049;2;0;0;0;0;0;6;0;50089;2;0;0;0;0;0;7;0;41225;0;0;0;0;8;0;40705;0;0;0;0;9;0;22186;0;0;0;0
17.03.19;20:40:00;1;426;7885;0;2;0;29729;0;0;0;0;3;0;18770;0;0;0;0;4;0;28551;0;0;0;0;5;0;66049;2;0;0;0;0;0;6;0;50089;2;0;0;0;0;0;7;0;41225;0;0;0;0;8;0;40705;0;0;0;0;9;0;22186;0;0;0;0
17.03.19;20:35:00;1;425;7849;0;2;0;29729;0;0;0;0;3;0;18770;0;0;0;0;4;0;28551;0;0;0;0;5;0;66049;2;0;0;0;0;0;6;0;50089;2;0;0;0;0;0;7;0;41225;0;0;0;0;8;0;40705;0;0;0;0;9;0;22186;0;0;0;0
17.03.19;20:30:00;1;431;7814;0;2;0;29729;0;0;0;0;3;0;18770;0;0;0;0;4;0;28551;0;0;0;0;5;0;66049;2;0;0;0;0;0;6;0;50089;2;0;0;0;0;0;7;0;41225;0;0;0;0;8;0;40705;0;0;0;0;9;0;22186;0;0;0;0
17.03.19;20:25:00;1;464;7777;0;2;0;29729;0;0;0;0;3;0;18770;0;0;0;0;4;0;28551;0;0;0;0;5;0;66049;2;0;0;0;0;0;6;0;50089;2;0;0;0;0;0;7;0;41225;0;0;0;0;8;0;40705;0;0;0;0;9;0;22186;0;0;0;0
17.03.19;20:20:00;1;463;7738;0;2;0;29729;0;0;0;0;3;0;18770;0;0;0;0;4;0;28551;0;0;0;0;5;0;66049;2;0;0;0;0;0;6;0;50089;2;0;0;0;0;0;7;0;41225;0;0;0;0;8;0;40705;0;0;0;0;9;0;22186;0;0;0;0
17.03.19;20:15:00;1;428;7699;0;2;0;29729;0;0;0;0;3;0;18770;0;0;0;0;4;0;28551;0;0;0;0;5;0;66049;2;0;0;0;0;0;6;0;50089;2;0;0;0;0;0;7;0;41225;0;0;0;0;8;0;40705;0;0;0;0;9;0;22186;0;0;0;0
17.03.19;20:10:00;1;430;7664;0;2;0;29729;0;0;0;0;3;0;18770;0;0;0;0;4;0;28551;0;0;0;0;5;0;66049;2;0;0;0;0;0;6;0;50089;2;0;0;0;0;0;7;0;41225;0;0;0;0;8;0;40705;0;0;0;0;9;0;22186;0;0;0;0
17.03.19;20:05:00;1;432;7628;0;2;0;29729;0;0;0;0;3;0;18770;0;0;0;0;4;0;28551;0;0;0;0;5;0;66049;2;0;0;0;0;0;6;0;50089;2;0;0;0;0;0;7;0;41225;0;0;0;0;8;0;40705;0;0;0;0;9;0;22186;0;0;0;0
17.03.19;20:00:00;1;431;7592;0;2;0;29729;0;0;0;0;3;0;18770;0;0;0;0;4;0;28551;0;0;0;0;5;0;66049;2;0;0;0;0;0;6;0;50089;2;0;0;0;0;0;7;0;41225;0;0;0;0;8;0;40705;0;0;0;0;9;0;22186;0;0;0;0
17.03.19;19:55:00;1;431;7556;0;2;0;29729;0;0;0;0;3;0;18770;0;0;0;0;4;0;28551;0;0;0;0;5;0;66049;2;0;0;0;0;0;6;0;50089;2;0;0;0;0;0;7;0;41225;0;0;0;0;8;0;40705;0;0;0;0;9;0;22186;0;0;0;0
17.03.19;19:50:00;1;432;7520;0;2;0;29729;0;0;0;0;3;0;18770;0;0;0;0;4;0;28551;0;0;0;0;5;0;66049;2;0;0;0;0;0;6;0;50089;2;0;0;0;0;0;7;0;41225;0;0;0;0;8;0;40705;0;0;0;0;9;0;22186;0;0;0;0
17.03.19;19:45:00;1;433;7484;0;2;0;29729;0;0;0;0;3;0;18770;0;0;0;0;4;0;28551;0;0;0;0;5;0;66049;2;0;0;0;0;0;6;0;50089;2;0;0;0;0;0;7;0;41225;0;0;0;0;8;0;40705;0;0;0;0;9;0;22186;0;0;0;0
17.03.19;19:40:00;1;474;7448;0;2;0;29729;0;0;0;0;3;0;18770;0;0;0;0;4;0;28551;0;0;0;0;5;0;66049;2;0;0;0;0;0;6;0;50089;2;0;0;0;0;0;7;0;41225;0;0;0;0;8;0;40705;0;0;0;0;9;0;22186;0;0;0;0
17.03.19;19:35:00;1;478;7408;0;2;0;29729;0;0;0;0;3;0;18770;0;0;0;0;4;0;28551;0;0;0;0;5;0;66049;2;0;0;0;0;0;6;0;50089;2;0;0;0;0;0;7;0;41225;0;0;0;0;8;0;40705;0;0;0;0;9;0;22186;0;0;0;0
17.03.19;19:30:00;1;453;7368;0;2;0;29729;0;0;0;0;3;0;18770;0;0;0;0;4;0;28551;0;0;0;0;5;0;66049;2;0;0;0;0;0;6;0;50089;2;0;0;0;0;0;7;0;41225;0;0;0;0;8;0;40705;0;0;0;0;9;0;22186;0;0;0;0
17.03.19;19:25:00;1;432;7330;0;2;0;29729;0;0;0;0;3;0;18770;0;0;0;0;4;0;28551;0;0;0;0;5;0;66049;2;0;0;0;0;0;6;0;50089;2;0;0;0;0;0;7;0;41225;0;0;0;0;8;0;40705;0;0;0;0;9;0;22186;0;0;0;0
17.03.19;19:20:00;1;433;7294;0;2;0;29729;0;0;0;0;3;0;18770;0;0;0;0;4;0;28551;0;0;0;0;5;0;66049;2;0;0;0;0;0;6;0;50089;2;0;0;0;0;0;7;0;41225;0;0;0;0;8;0;40705;0;0;0;0;9;0;22186;0;0;0;0
17.03.19;19:15:00;1;435;7258;0;2;0;29729;0;0;0;0;3;0;18770;0;0;0;0;4;0;28551;0;0;0;0;5;0;66049;2;0;0;0;0;0;6;0;50089;2;0;0;0;0;0;7;0;41225;0;0;0;0;8;0;40705;0;0;0;0;9;0;22186;0;0;0;0
17.03.19;19:10:00;1;469;7221;0;2;0;29729;0;0;0;0;3;0;18770;0;0;0;0;4;0;28551;0;0;0;0;5;0;66049;2;0;0;0;0;0;6;0;50089;2;0;0;0;0;0;7;0;41225;0;0;0;0;8;0;40705;0;0;0;0;9;0;22186;0;0;0;0
17.03.19;19:05:00;1;497;7182;0;2;0;29729;0;0;0;0;3;0;18770;0;0;0;0;4;0;28551;0;0;0;0;5;0;66049;2;0;0;0;0;0;6;0;50089;2;0;0;0;0;0;7;0;41225;0;0;0;0;8;0;40705;0;0;0;0;9;0;22186;0;0;0;0
17.03.19;19:00:00;1;498;7140;0;2;0;29729;0;0;0;0;3;0;18770;0;0;0;0;4;0;28551;0;0;0;0;5;0;66049;2;0;0;0;0;0;6;0;50089;2;0;0;0;0;0;7;0;41225;0;0;0;0;8;0;40705;0;0;0;0;9;0;22186;0;0;0;0
17.03.19;18:55:00;1;515;7099;0;2;0;29729;0;0;0;0;3;0;18770;0;0;0;0;4;0;28551;0;0;0;0;5;0;66049;2;0;0;0;0;0;6;0;50089;2;0;0;0;0;0;7;0;41225;0;0;0;0;8;0;40705;0;0;0;0;9;0;22186;0;0;0;0
17.03.19;18:50:00;1;538;7055;0;2;0;29729;0;0;0;0;3;0;18770;0;0;0;0;4;0;28551;0;0;0;0;5;0;66049;2;0;0;0;0;0;6;0;50089;2;0;0;0;0;0;7;0;41225;0;0;0;0;8;0;40705;0;0;0;0;9;0;22186;0;0;0;0
17.03.19;18:45:00;1;545;7010;0;2;0;29729;0;0;0;0;3;0;18770;0;0;0;0;4;0;28551;0;0;0;0;5;0;66049;2;0;0;0;0;0;6;0;50089;2;0;0;0;0;0;7;0;41225;0;0;0;0;8;0;40705;0;0;0;0;9;0;22186;0;0;0;0
17.03.19;18:40:00;1;496;6964;0;2;0;29729;0;0;0;0;3;0;18770;0;0;0;0;4;0;28551;0;0;0;0;5;0;66049;2;0;0;0;0;0;6;0;50089;2;0;0;0;0;0;7;0;41225;0;0;0;0;8;0;40705;0;0;0;0;9;0;22186;0;0;0;0
17.03.19;18:35:00;1;478;6923;0;2;0;29729;0;0;0;0;3;0;18770;0;0;112;9;4;0;28551;0;0;0;0;5;0;66049;2;0;0;0;0;0;6;0;50089;0;0;0;0;0;0;7;0;41225;0;0;0;0;8;0;40705;0;0;0;0;9;0;22186;0;0;0;0
17.03.19;18:30:00;1;429;6883;0;2;0;29729;2;0;274;20;3;0;18770;6;0;311;22;4;0;28551;0;0;58;22;5;0;66049;2;0;0;0;0;0;6;0;50089;0;0;0;0;0;0;7;0;41225;0;0;0;0;8;0;40705;0;0;0;0;9;0;22186;0;0;0;0
17.03.19;18:25:00;1;431;6847;0;2;0;29729;6;0;320;21;3;0;18770;6;1;378;22;4;0;28551;1;0;113;27;5;0;66049;26;0;0;254;256;27;6;0;50089;1;5;1;262;119;21;7;0;41225;0;0;87;8;8;0;40705;0;0;88;8;9;0;22186;0;0;179;12
17.03.19;18:20:00;1;429;6811;0;2;0;29729;6;0;364;22;3;0;18770;6;3;417;23;4;0;28551;1;0;180;28;5;0;66049;26;0;0;392;567;33;6;0;50089;23;9;0;245;457;31;7;0;41225;6;0;350;24;8;0;40705;6;0;353;24;9;0;22186;6;0;376;20
17.03.19;18:15:00;1;464;6775;0;2;0;29729;6;0;386;22;3;1;18770;6;4;469;23;4;0;28551;1;0;211;28;5;13;66048;4;0;0;402;635;33;6;0;50089;23;5;3;441;552;32;7;0;41225;6;0;412;25;8;0;40705;6;0;418;25;9;0;22186;6;1;446;20
17.03.19;18:10:00;1;470;6736;0;2;0;29729;6;0;402;23;3;1;18770;6;6;488;24;4;4;28551;3;4;200;29;5;83;66048;4;2;6;378;601;34;6;55;50089;4;41;50;456;458;33;7;3;41225;3;6;416;25;8;2;40705;3;7;419;25;9;2;22186;4;2;476;21
17.03.19;18:05:00;1;499;6696;0;2;57;29729;4;92;358;24;3;2;18770;6;9;513;24;4;17;28551;3;17;198;29;5;127;66040;4;24;29;378;601;34;6;88;50084;4;24;28;456;458;33;7;11;41225;6;22;441;26;8;11;40705;6;22;444;26;9;7;22185;3;17;465;21
17.03.19;18:00:00;1;529;6655;0;2;99;29725;4;132;358;25;3;44;18769;6;74;455;25;4;43;28550;3;45;197;30;5;171;66029;4;47;42;378;601;35;6;111;50077;4;50;59;456;458;33;7;59;41224;4;91;404;27;8;55;40704;4;86;409;26;9;5;22185;6;11;523;21
17.03.19;17:55:00;1;360;6610;0;2;181;29716;4;220;369;26;3;98;18766;4;136;431;25;4;102;28546;3;106;211;31;5;208;66015;4;75;71;378;601;35;6;145;50067;4;58;65;456;458;33;7;105;41219;4;140;423;27;8;96;40699;4;132;411;27;9;6;22184;6;11;538;22
17.03.19;17:50:00;1;215;6578;0;2;312;29702;4;354;354;27;3;173;18758;4;210;405;26;4;241;28538;5;250;221;31;5;243;65997;4;89;82;378;601;35;6;163;50055;4;52;57;456;458;33;7;161;41211;4;201;453;27;8;133;40691;4;172;442;27;9;24;22184;6;32;513;22
17.03.19;17:45:00;1;214;6560;0;2;426;29677;4;472;361;27;3;210;18744;4;253;461;26;4;335;28518;5;349;230;32;5;266;65977;4;100;96;378;601;35;6;183;50041;4;98;98;456;458;33;7;199;41197;4;237;465;28;8;170;40680;4;206;429;28;9;50;22182;6;74;461;23
17.03.19;17:40:00;1;215;6542;0;2;203;29642;4;242;363;28;3;118;18727;4;158;480;27;4;131;28491;5;136;220;32;5;269;65954;4;104;98;378;601;35;6;187;50026;4;75;76;456;458;34;7;151;41180;4;191;444;28;8;148;40666;4;178;392;28;9;65;22178;4;94;434;24
17.03.19;17:35:00;1;216;6524;0;2;204;29625;4;244;363;29;3;123;18717;4;158;473;27;4;129;28479;5;134;214;33;5;293;65931;4;116;105;378;601;36;6;196;50010;4;92;100;456;458;34;7;159;41168;4;195;412;29;8;160;40654;4;194;425;29;9;74;22173;4;105;474;24
17.03.19;17:30:00;1;216;6506;0;2;206;29608;4;247;368;30;3;126;18706;4;162;465;28;4;132;28469;5;137;215;34;5;289;65907;4;117;107;378;601;36;6;200;49994;4;95;98;456;458;34;7;160;41154;4;197;383;29;8;158;40640;4;198;432;29;9;71;22167;4;105;463;25
17.03.19;17:25:00;1;217;6488;0;2;283;29590;4;326;365;32;3;155;18696;4;195;433;28;4;195;28458;5;203;223;35;5;321;65883;4;136;122;378;601;36;6;221;49977;4;111;115;456;458;34;7;210;41141;4;245;406;30;8;200;40627;4;243;446;30;9;78;22161;4;109;472;25
17.03.19;17:20:00;1;217;6470;0;2;984;29567;4;1055;368;34;3;558;18683;4;612;416;29;4;787;28442;5;820;231;36;5;557;65856;4;250;239;361;611;36;6;455;49958;4;228;236;556;542;34;7;612;41124;4;658;393;31;8;570;40611;4;617;390;30;9;95;22154;4;128;510;26
17.03.19;17:15:00;1;252;6452;0;2;1523;29491;4;1616;376;35;3;846;18640;4;909;428;30;4;1218;28380;5;1269;239;36;5;906;65807;4;436;368;404;652;37;6;694;49919;4;350;357;580;557;34;7;1311;41075;4;1387;435;31;8;1244;40565;4;1309;395;31;9;105;22146;4;135;403;27
17.03.19;17:10:00;1;261;6431;0;2;1717;29364;4;1821;377;36;3;942;18570;4;1008;420;31;4;1393;28279;5;1451;235;37;5;1109;65730;4;557;450;413;642;37;6;850;49861;4;425;443;588;560;35;7;1691;40967;4;1787;453;32;8;1545;40462;4;1624;416;32;9;160;22138;4;190;355;28
17.03.19;17:05:00;1;250;6409;0;2;1907;29222;4;2018;388;37;3;1029;18491;4;1098;423;31;4;1553;28164;5;1617;238;38;5;1308;65636;4;652;544;415;672;37;6;1006;49789;4;499;505;593;562;35;7;1928;40828;4;2038;460;32;8;1783;40334;4;1878;435;32;9;392;22124;4;429;355;29
17.03.19;17:00:00;1;218;6388;0;2;2036;29064;4;2149;382;38;3;1113;18405;4;1184;426;31;4;1700;28035;5;1771;237;38;5;1516;65526;4;774;634;417;685;38;6;1168;49705;4;575;583;590;563;35;7;2188;40667;4;2300;470;33;8;2048;40186;4;2152;445;33;9;706;22092;4;755;353;30
17.03.19;16:55:00;1;261;6370;0;2;1862;28895;4;1972;391;39;3;993;18314;4;1060;424;32;4;1510;27895;5;1573;235;39;5;1490;65400;4;748;624;412;663;38;6;1155;49608;4;612;600;586;554;35;7;2095;40485;4;2213;472;33;8;2035;40016;4;2140;462;33;9;776;22034;4;826;355;30
17.03.19;16:50:00;1;273;6348;0;2;1951;28744;4;2066;389;40;3;1034;18233;4;1102;421;32;4;1600;27772;5;1667;235;39;5;1661;65274;4;849;702;409;671;38;6;1267;49511;4;638;642;585;559;35;7;2073;40310;4;2192;461;34;8;1999;39845;4;2109;459;34;9;774;21969;4;828;380;31
17.03.19;16:45:00;1;298;6325;0;2;2401;28579;4;2534;377;41;3;1310;18146;4;1390;422;33;4;2041;27636;5;2126;234;40;5;2166;65128;4;1127;925;411;680;39;6;1643;49400;4;840;821;590;565;36;7;2598;40141;4;2723;473;34;8;2548;39682;4;2681;468;34;9;1087;21907;4;1157;406;32
17.03.19;16:40:00;1;270;6301;0;2;2595;28378;4;2740;390;42;3;1390;18036;4;1472;428;33;4;2119;27466;5;2207;234;41;5;2391;64947;4;1241;1024;417;689;39;6;1838;49262;4;946;931;587;563;36;7;2845;39921;4;2980;469;34;8;2781;39467;4;2923;464;34;9;1258;21815;4;1335;431;33
17.03.19;16:35:00;1;271;6278;0;2;2779;28161;4;2934;391;43;3;1444;17920;4;1527;429;33;4;2160;27289;5;2250;235;41;5;2498;64745;4;1314;1082;414;683;39;6;1917;49107;4;1019;1008;586;571;36;7;2991;39684;4;3141;460;34;8;2981;39236;4;3126;466;35;9;1421;21711;4;1511;460;34
17.03.19;16:30:00;1;304;6255;0;2;2690;27931;4;2842;392;43;3;1454;17800;4;1539;431;34;4;2329;27109;5;2426;236;42;5;2907;64526;4;1544;1251;420;680;40;6;2224;48939;4;1147;1102;590;560;36;7;3164;39435;4;3319;466;35;8;3086;38989;4;3237;461;35;9;1557;21593;4;1647;481;35
17.03.19;16:25:00;1;313;6230;0;2;2919;27712;4;3082;391;44;3;1518;17681;4;1603;424;34;4;2359;26917;5;2457;234;42;5;2990;64289;4;1598;1301;416;672;40;6;2306;48758;4;1203;1179;592;570;36;7;3234;39171;4;3388;464;35;8;3160;38731;4;3318;461;36;9;1651;21462;4;1756;495;36
17.03.19;16:20:00;1;321;6204;0;2;3125;27470;4;3297;390;44;3;1616;17555;4;1708;426;34;4;2537;26720;5;2642;232;42;5;3357;64036;4;1779;1466;413;673;40;6;2542;48564;4;1298;1266;588;564;36;7;3337;38903;4;3500;461;36;8;3273;38468;4;3431;454;36;9;1758;21325;4;1870;512;37
17.03.19;16:15:00;1;216;6177;0;2;3116;27209;4;3290;386;44;3;1616;17421;4;1707;432;35;4;2475;26510;5;2579;228;43;5;3424;63755;4;1816;1493;414;675;41;6;2643;48349;4;1391;1354;597;561;37;7;3475;38623;4;3653;471;36;8;3431;38194;4;3603;469;36;9;1819;21178;4;1931;506;37
17.03.19;16:10:00;1;235;6159;0;2;2758;26949;4;2918;396;45;3;1494;17285;4;1578;431;35;4;2209;26302;5;2301;231;43;5;3223;63472;4;1718;1401;413;670;41;6;2463;48131;4;1257;1226;587;564;37;7;3122;38332;4;3280;461;37;8;3045;37907;4;3202;466;37;9;1680;21026;4;1789;518;37
17.03.19;16:05:00;1;263;6139;0;2;3145;26718;4;3324;390;46;3;1668;17160;4;1762;433;36;4;2569;26116;5;2676;226;44;5;3838;63205;4;2059;1686;411;665;41;6;2876;47927;4;1493;1458;575;555;37;7;3398;38069;4;3572;456;37;8;3294;37649;4;3461;453;38;9;1803;20884;4;1916;512;38
17.03.19;16:00:00;1;264;6117;0;2;3527;26455;4;3725;386;47;3;1846;17020;4;1950;420;36;4;2869;25902;5;2989;223;45;5;4334;62887;4;2343;1908;407;660;42;6;3307;47684;4;1701;1641;577;555;37;7;3967;37789;4;4169;453;38;8;3913;37377;4;4103;442;38;9;2151;20735;4;2278;495;39
17.03.19;15:55:00;1;263;6095;0;2;3584;26161;4;3782;382;47;3;1895;16867;4;1997;427;37;4;2876;25663;5;2995;225;45;5;4408;62526;4;2381;1942;407;661;42;6;3371;47406;4;1731;1684;580;557;37;7;4093;37458;4;4299;448;38;8;4001;37052;4;4196;452;38;9;2207;20557;4;2335;499;39
17.03.19;15:50:00;1;265;6073;0;2;3677;25862;4;3878;377;47;3;1954;16710;4;2057;413;37;4;2951;25425;5;3074;227;46;5;4496;62150;4;2429;1979;407;661;42;6;3519;47117;4;1808;1770;579;555;38;7;4210;37116;4;4419;446;39;8;4152;36720;4;4360;452;39;9;2287;20374;4;2423;503;40
17.03.19;15:45:00;1;274;6050;0;2;3663;25557;4;3867;380;48;3;2000;16547;4;2106;416;37;4;3127;25179;5;3257;230;46;5;4903;61757;4;2653;2166;409;657;43;6;3754;46815;4;1945;1880;569;558;38;7;4301;36770;4;4522;445;39;8;4224;36375;4;4434;449;39;9;2330;20184;4;2469;503;41
17.03.19;15:40:00;1;308;6028;0;2;3807;25252;4;4023;384;48;3;2152;16381;4;2266;434;38;4;3294;24917;5;3431;230;46;5;5181;61349;4;2809;2289;409;660;43;6;4012;46500;4;2067;2008;575;558;38;7;4432;36408;4;4647;445;39;8;4360;36019;4;4578;448;39;9;2410;19988;4;2548;500;41
17.03.19;15:35:00;1;318;6002;0;2;3813;24936;4;4023;378;48;3;2198;16202;4;2314;431;38;4;3305;24645;5;3443;228;47;5;5313;60918;4;2883;2351;406;660;43;6;3872;46170;4;2004;1956;572;555;38;7;4374;36041;4;4599;443;40;8;4198;35658;4;4419;454;40;9;2291;19788;4;2428;492;41
17.03.19;15:30:00;1;301;5975;0;2;3887;24615;4;4102;376;48;3;2241;16018;4;2359;434;38;4;3399;24368;5;3540;228;47;5;5560;60480;4;3034;2455;405;654;43;6;4230;45837;4;2218;2147;571;546;38;7;4611;35674;4;4842;444;40;8;4546;35307;4;4775;446;40;9;2494;19596;4;2642;493;42
17.03.19;15:25:00;1;274;5950;0;2;3905;24292;4;4121;374;48;3;2258;15832;4;2378;430;38;4;3453;24086;5;3597;224;47;5;5743;60016;4;3132;2536;402;647;44;6;4368;45484;4;2265;2201;560;549;38;7;4582;35290;4;4809;444;41;8;4597;34928;4;4825;434;40;9;2559;19388;4;2705;477;42
17.03.19;15:20:00;1;278;5927;0;2;3813;23967;4;4017;369;48;3;2200;15643;4;2312;425;38;4;3380;23798;5;3520;224;48;5;5705;59546;4;3115;2523;401;636;44;6;4392;45125;4;2268;2180;562;547;38;7;4526;34907;4;4755;445;41;8;4489;34545;4;4712;425;41;9;2479;19174;4;2622;476;42
17.03.19;15:15:00;1;278;5904;0;2;4132;23649;4;4357;378;49;3;2396;15459;4;2519;427;39;4;3655;23515;5;3808;222;48;5;6249;59062;4;3417;2769;399;637;44;6;4765;44757;4;2453;2383;562;545;38;7;4908;34539;4;5155;432;41;8;4844;34177;4;5083;434;41;9;2690;18972;4;2841;477;43
17.03.19;15:10:00;1;278;5880;0;2;3901;23305;4;4114;371;49;3;2317;15260;4;2435;426;39;4;3510;23211;5;3656;223;48;5;6149;58541;4;3356;2726;403;639;44;6;4797;44359;4;2488;2400;567;537;39;7;4962;34130;4;5215;436;41;8;4888;33774;4;5133;433;41;9;2706;18748;4;2867;490;43
17.03.19;15:05:00;1;277;5857;0;2;3746;22990;4;3946;366;49;3;2211;15071;4;2323;422;39;4;3388;22925;5;3530;221;49;5;6096;58025;4;3329;2702;398;643;45;6;4658;43967;4;2425;2330;558;533;39;7;4600;33717;4;4835;442;42;8;4540;33367;4;4759;426;42;9;2527;18523;4;2676;492;43
17.03.19;15:00:00;1;222;5834;0;2;4102;22675;4;4322;366;49;3;2452;14886;4;2580;440;39;4;3712;22642;5;3867;220;49;5;6681;57517;4;3664;2962;399;635;45;6;4947;43583;4;2542;2474;553;533;39;7;4789;33332;4;5025;428;42;8;4714;32986;4;4955;440;42;9;2660;18311;4;2813;481;44
17.03.19;14:55:00;1;255;5814;0;2;4144;22331;4;4363;362;49;3;2407;14682;4;2531;429;39;4;3574;22331;5;3723;218;49;5;6505;56967;4;3559;2886;398;638;45;6;5052;43166;4;2617;2529;553;532;39;7;5040;32934;4;5298;444;42;8;4980;32599;4;5224;423;42;9;2759;18093;4;2911;470;44
17.03.19;14:50:00;1;296;5792;0;2;4313;21984;4;4541;366;50;3;2575;14481;4;2700;428;40;4;3883;22032;5;4045;219;49;5;7134;56408;4;3920;3174;398;631;45;6;5396;42743;4;2808;2702;556;533;39;7;5228;32512;4;5494;441;42;8;5154;32179;4;5405;417;42;9;2869;17861;4;3032;476;44
17.03.19;14:45:00;1;297;5767;0;2;4216;21624;4;4445;366;50;3;2572;14266;4;2700;424;40;4;3842;21710;5;4002;219;49;5;7101;55818;4;3893;3153;398;634;45;6;5124;42296;4;2635;2562;564;540;39;7;5138;32078;4;5401;436;42;8;5056;31753;4;5309;420;42;9;2846;17623;4;3005;467;44